This is the latest recevied weather packets stored in our database for station/object N4JTC. If no packets are shown the sender has not sent any weather packets the latest 10 day(s).
| Time | Temp. | Humidity | Pressure | Rain* | Wind** | Luminosity | Snow |
|---|---|---|---|---|---|---|---|
| 1778014503 | 27.22° C | 62% | 1015.2 hPa | 0 mm | - | 450 W/m² | - |
| 1778014203 | 27.22° C | 61% | 1015.3 hPa | 0 mm | - | 528 W/m² | - |
| 1778013903 | 27.22° C | 61% | 1015.3 hPa | 0 mm | - | 416 W/m² | - |
| 1778013603 | 27.22° C | 61% | 1015.6 hPa | 0 mm | - | 507 W/m² | - |
| 1778013303 | 27.22° C | 62% | 1015.5 hPa | 0 mm | - | 507 W/m² | - |
| 1778013003 | 27.22° C | 61% | 1015.5 hPa | 0 mm | - | 548 W/m² | - |
| 1778012703 | 27.22° C | 60% | 1015.7 hPa | 0 mm | - | 543 W/m² | - |
| 1778012403 | 27.22° C | 60% | 1015.8 hPa | 0 mm | - | 526 W/m² | - |
| 1778012102 | 27.78° C | 60% | 1016 hPa | 0 mm | - | 617 W/m² | - |
| 1778011807 | 27.22° C | 61% | 1015.9 hPa | 0 mm | - | 621 W/m² | - |
| 1778011503 | 27.22° C | 60% | 1016 hPa | 0 mm | - | 586 W/m² | - |
| 1778011203 | 27.22° C | 61% | 1016.1 hPa | 0 mm | - | 643 W/m² | - |
| 1778010902 | 27.78° C | 60% | 1016 hPa | 0 mm | - | 701 W/m² | - |
| 1778010303 | 27.78° C | 59% | 1015.7 hPa | 0 mm | - | 689 W/m² | - |
| 1778010003 | 27.78° C | 59% | 1016.2 hPa | 0 mm | - | 712 W/m² | - |
| 1778009702 | 27.78° C | 58% | 1016.2 hPa | 0 mm | - | 707 W/m² | - |
| 1778009104 | 27.78° C | 58% | 1016.4 hPa | 0 mm | - | 700 W/m² | - |
| 1778008503 | 28.89° C | 57% | 1016.3 hPa | 0 mm | - | 744 W/m² | - |
| 1778008203 | 28.89° C | 58% | 1016.2 hPa | 0 mm | - | 737 W/m² | - |
| 1778007903 | 28.33° C | 57% | 1016.3 hPa | 0 mm | - | 806 W/m² | - |
| 1778007603 | 28.33° C | 58% | 1016.5 hPa | 0 mm | - | 849 W/m² | - |
| 1778007303 | 28.33° C | 57% | 1016.6 hPa | 0 mm | - | 611 W/m² | - |
| 1778006703 | 27.78° C | 58% | 1016.5 hPa | 0 mm | - | 739 W/m² | - |
| 1778006403 | 27.78° C | 60% | 1016.5 hPa | 0 mm | - | 704 W/m² | - |
| 1778006103 | 27.78° C | 60% | 1016.5 hPa | 0 mm | - | 711 W/m² | - |
* Rain latest hour (hover to see other rain measurements)
** Current wind speed in m/s (hover to see current wind gust speed)